Date_and_time,latitude,longitude,wind_speed,RelWindDirFrom,WindDirFrom,air_pressure,air_temperature,relative_humidity,Temp,platform_speed_wrt_ground,air_pressure_at_mean_sea_level,platform_orientation
2018-07-25 23:40,50.6304533333333,-96.9807683333333,10.9,18.0,306,988.33,14.8,89,21.69,0.0,1014.69,142.0
2018-07-25 23:50,50.6304316666667,-96.98075,12.4,19.8,310,988.42,14.7,89,21.69,0.0,1014.80,142.0
2018-07-26 00:00,50.6304416666667,-96.980775,10.9,20.5,303,988.59,14.4,93,21.66,0.0,1014.99,38.0
2018-07-26 00:10,50.6304366666667,-96.980765,10.1,17.3,306,988.65,14.1,97,21.65,0.0,1015.07,38.0
2018-07-26 00:20,50.6304183333333,-96.9807583333333,11.2,17.9,307,988.59,13.9,98,21.67,0.0,1015.01,38.0
2018-07-26 00:30,50.6304266666667,-96.9807566666667,11.3,16.8,305,988.57,13.9,98,21.68,0.0,1015.00,38.0
2018-07-26 00:40,50.6304283333333,-96.98076,10.2,15.4,303,988.63,13.8,99,21.66,0.0,1015.08,38.0
2018-07-26 00:50,50.6304283333333,-96.9807583333333,9.6,15.3,303,988.64,13.7,99,21.64,0.0,1015.12,38.0
2018-07-26 01:00,50.63043,-96.980745,9.5,15.8,304,988.62,13.6,100,21.64,0.0,1015.10,90.0
2018-07-26 01:10,50.63043,-96.9807533333333,9.5,14.8,299,988.64,13.6,100,21.61,0.0,1015.13,90.0
2018-07-26 01:20,50.6304316666667,-96.98074,9.8,14.9,302,988.66,13.6,100,21.60,0.0,1015.15,90.0
2018-07-26 01:30,50.6304233333333,-96.9807583333333,8.5,14.9,305,988.76,13.5,100,21.60,0.0,1015.26,90.0
2018-07-26 01:40,50.630425,-96.9807566666667,8.8,13.6,304,988.79,13.6,100,21.61,0.0,1015.30,90.0
2018-07-26 01:50,50.6304283333333,-96.9807566666667,8.3,14.0,307,988.82,13.6,100,21.61,0.0,1015.33,90.0
2018-07-26 02:00,50.6304283333333,-96.9807566666667,8.9,15.2,312,988.81,13.6,100,21.61,0.0,1015.34,143.4
2018-07-26 02:10,50.6304283333333,-96.9807583333333,9.1,13.1,307,988.79,13.6,100,21.61,0.0,1015.33,143.4
2018-07-26 02:20,50.6304316666667,-96.98076,9.3,14.1,306,988.77,13.7,100,21.60,0.0,1015.30,143.4
2018-07-26 02:30,50.6304316666667,-96.98076,8.7,13.0,302,988.75,13.7,100,21.57,0.0,1015.28,143.4
2018-07-26 02:40,50.6304333333333,-96.98076,8.1,13.6,303,988.81,13.8,100,21.58,0.0,1015.35,143.4
2018-07-26 02:50,50.6304483333333,-96.9807783333333,8.4,12.0,304,988.94,13.9,99,21.57,0.0,1015.48,143.4
2018-07-26 03:00,50.6304266666667,-96.9807633333333,9.6,14.5,301,988.99,13.9,99,21.58,0.0,1015.54,156.5
2018-07-26 03:10,50.63043,-96.9807633333333,9.2,15.2,303,989.06,13.8,100,21.57,0.0,1015.61,156.5
2018-07-26 03:20,50.630435,-96.98076,8.6,12.8,304,989.12,13.8,100,21.54,0.0,1015.67,156.5
2018-07-26 03:30,50.6304366666667,-96.9807616666667,7.4,14.3,306,989.17,13.8,100,21.46,0.0,1015.73,156.5
2018-07-26 03:40,50.6304383333333,-96.98076,7.0,10.1,305,989.18,13.7,100,21.45,0.0,1015.74,156.5
2018-07-26 03:50,50.6304383333333,-96.98076,7.3,11.2,322,989.17,13.8,100,21.45,0.0,1015.73,156.5
2018-07-26 04:00,50.6304383333333,-96.98076,11.9,20.6,346,989.20,14.0,100,21.44,0.0,1015.75,356.8
2018-07-26 04:10,50.6304383333333,-96.98076,13.5,19.5,344,989.21,13.8,100,21.41,0.0,1015.76,356.8
2018-07-26 04:20,50.6304383333333,-96.9807683333333,12.1,17.0,340,989.25,13.7,100,21.37,0.0,1015.81,356.8
2018-07-26 04:30,50.6304383333333,-96.9807666666667,11.9,17.6,335,989.30,13.7,100,21.38,0.0,1015.85,356.8
2018-07-26 04:40,50.6304383333333,-96.9807666666667,10.5,14.7,333,989.38,13.6,100,21.45,0.0,1015.93,356.8
2018-07-26 04:50,50.6304416666667,-96.980765,11.0,16.1,331,989.39,13.5,100,21.45,0.0,1015.95,356.8
2018-07-26 05:00,50.6304416666667,-96.9807633333333,11.8,19.6,336,989.43,13.6,100,21.38,0.0,1015.99,336.5
2018-07-26 05:10,50.6304333333333,-96.980755,12.4,19.2,340,989.46,13.6,99,21.37,0.0,1016.01,336.5
2018-07-26 05:20,50.6304333333333,-96.98076,12.1,18.5,339,989.51,13.6,99,21.39,0.0,1016.07,336.5
2018-07-26 05:30,50.6304333333333,-96.980755,13.0,22.2,336,989.52,13.4,99,21.37,0.0,1016.09,336.5
2018-07-26 05:40,50.6304366666667,-96.980755,14.2,21.4,334,989.45,13.3,99,21.37,0.0,1016.03,336.5
2018-07-26 05:50,50.6304383333333,-96.9807566666667,13.4,19.3,336,989.53,13.3,97,21.33,0.0,1016.09,336.5
2018-07-26 06:00,50.63044,-96.9807566666667,12.5,19.0,335,989.60,13.2,96,21.28,0.0,1016.18,360.0
2018-07-26 06:10,50.6304416666667,-96.9807583333333,11.1,16.5,332,989.73,13.1,96,21.25,0.0,1016.33,360.0
2018-07-26 06:20,50.6304433333333,-96.9807583333333,12.0,18.6,331,989.65,13.0,96,21.25,0.0,1016.24,360.0
2018-07-26 06:30,50.6304416666667,-96.9807583333333,10.6,16.6,327,989.74,12.9,96,21.23,0.0,1016.35,360.0
2018-07-26 06:40,50.6304416666667,-96.9807583333333,9.1,16.2,322,989.87,12.8,97,21.22,0.0,1016.49,360.0
2018-07-26 06:50,50.6304416666667,-96.9807583333333,8.4,14.0,321,989.92,12.7,98,21.22,0.0,1016.55,360.0
2018-07-26 07:00,50.6304416666667,-96.9807583333333,8.7,12.3,327,989.95,12.8,99,21.23,0.0,1016.57,90.0
2018-07-26 07:10,50.6304416666667,-96.9807583333333,6.6,10.9,321,989.98,12.8,99,21.24,0.0,1016.60,90.0
2018-07-26 07:20,50.6304416666667,-96.9807583333333,8.1,11.9,323,989.86,12.9,99,21.22,0.0,1016.48,90.0
2018-07-26 07:30,50.6304416666667,-96.9807583333333,7.8,11.4,322,989.86,12.9,99,21.21,0.0,1016.48,90.0
2018-07-26 07:40,50.6304416666667,-96.9807583333333,7.4,13.0,320,989.83,13.0,99,21.21,0.0,1016.45,90.0
2018-07-26 07:50,50.6304416666667,-96.9807583333333,7.6,13.7,317,989.80,13.0,99,21.17,0.0,1016.42,90.0
2018-07-26 08:00,50.6304416666667,-96.9807583333333,7.3,11.9,322,989.87,13.2,99,21.20,0.0,1016.49,90.0
2018-07-26 08:10,50.6304416666667,-96.98076,8.1,13.4,323,989.87,13.3,99,21.19,0.0,1016.49,90.0
2018-07-26 08:20,50.6304466666667,-96.9807483333333,8.6,13.6,324,989.90,13.4,99,21.21,0.0,1016.52,90.0
2018-07-26 08:30,50.630445,-96.9807533333333,9.2,14.5,322,989.91,13.4,99,21.21,0.0,1016.53,90.0
2018-07-26 08:40,50.630445,-96.9807566666667,9.6,13.5,322,989.94,13.5,99,21.15,0.0,1016.57,90.0
2018-07-26 08:50,50.6304416666667,-96.9807583333333,10.7,15.8,322,989.85,13.4,99,21.07,0.0,1016.48,90.0
2018-07-26 09:00,50.6304433333333,-96.9807583333333,11.4,19.2,324,989.80,13.4,98,21.07,0.0,1016.43,90.0
2018-07-26 09:10,50.6304566666667,-96.9807883333333,11.4,17.5,333,989.93,13.5,96,21.09,0.0,1016.55,90.0
2018-07-26 09:20,50.6304433333333,-96.9807633333333,11.7,18.1,333,989.96,13.6,95,21.11,0.0,1016.58,90.0
2018-07-26 09:30,50.6304433333333,-96.98076,9.9,15.0,326,990.12,13.6,96,21.12,0.0,1016.74,90.0
2018-07-26 09:40,50.6304416666667,-96.980755,11.0,17.3,326,990.12,13.5,95,21.12,0.0,1016.74,90.0
2018-07-26 09:50,50.6304416666667,-96.980755,10.7,16.4,330,990.24,13.5,93,21.11,0.0,1016.86,90.0
2018-07-26 10:00,50.6304366666667,-96.9807666666667,12.1,18.6,336,990.32,13.6,91,21.07,0.0,1016.93,228.3
2018-07-26 10:10,50.6304416666667,-96.98075,10.2,15.7,333,990.47,13.6,92,21.05,0.0,1017.08,228.3
2018-07-26 10:20,50.6304316666667,-96.98076,12.2,16.6,333,990.48,13.6,89,21.02,0.0,1017.08,228.3
2018-07-26 10:30,50.63044,-96.9807483333333,11.8,16.8,334,990.62,13.6,86,21.02,0.0,1017.22,228.3
2018-07-26 10:40,50.63044,-96.98075,10.0,15.5,331,990.76,13.6,86,21.05,0.0,1017.37,228.3
2018-07-26 10:50,50.6304383333333,-96.98075,7.9,12.6,327,990.91,13.4,88,21.02,0.0,1017.53,228.3
2018-07-26 11:00,50.6304416666667,-96.9807533333333,7.9,13.0,325,990.96,13.2,89,21.01,0.0,1017.59,90.0
2018-07-26 11:10,50.6304416666667,-96.9807533333333,8.8,13.4,323,990.98,13.2,89,21.00,0.0,1017.61,90.0
2018-07-26 11:20,50.6304416666667,-96.980755,9.2,13.1,320,991.05,13.1,87,21.01,0.0,1017.69,90.0
2018-07-26 11:30,50.6304416666667,-96.98076,9.3,13.5,320,991.15,13.1,86,20.97,0.0,1017.80,90.0
2018-07-26 11:40,50.6304416666667,-96.98076,9.5,12.6,321,991.27,13.1,84,20.95,0.0,1017.92,90.0
2018-07-26 11:50,50.6304433333333,-96.9807583333333,8.9,13.4,324,991.36,13.0,83,20.93,0.0,1018.00,90.0
2018-07-26 12:00,50.6304416666667,-96.9807766666667,8.2,13.6,324,991.42,13.1,81,20.92,0.0,1018.07,270.0
2018-07-26 12:10,50.6304416666667,-96.9807716666667,8.9,13.3,336,991.42,13.3,80,20.93,0.0,1018.06,270.0
2018-07-26 12:20,50.6304416666667,-96.9807683333333,8.7,12.1,332,991.47,13.5,79,20.92,0.0,1018.10,270.0
2018-07-26 12:30,50.6304416666667,-96.980765,8.5,12.4,320,991.59,13.3,79,20.92,0.0,1018.23,270.0
2018-07-26 12:40,50.6304433333333,-96.980765,7.8,10.8,327,991.70,13.5,78,20.93,0.0,1018.34,270.0
2018-07-26 12:50,50.6304416666667,-96.9807633333333,7.7,10.7,325,991.83,13.8,76,20.92,0.0,1018.46,270.0
2018-07-26 13:00,50.6304416666667,-96.98075,8.3,11.8,323,991.80,14.0,75,20.92,0.0,1018.44,60.8
2018-07-26 13:10,50.63044,-96.980755,8.2,12.7,323,991.78,14.3,74,20.91,0.0,1018.41,60.8
2018-07-26 13:20,50.63044,-96.9807533333333,8.4,12.1,327,991.75,14.6,72,20.89,0.0,1018.36,60.8
2018-07-26 13:30,50.6304383333333,-96.9807566666667,8.9,12.8,316,991.70,14.6,72,20.88,0.0,1018.31,60.8
2018-07-26 13:40,50.6304383333333,-96.9807583333333,8.0,12.1,325,991.76,14.7,72,20.91,0.0,1018.36,60.8
2018-07-26 13:50,50.6304383333333,-96.9807616666667,7.2,12.4,321,991.82,15.0,71,20.83,0.0,1018.41,60.8
2018-07-26 14:00,50.6304383333333,-96.9807616666667,7.3,12.6,325,991.80,15.3,70,20.77,0.0,1018.36,270.0
2018-07-26 14:10,50.6304366666667,-96.98076,6.5,10.2,320,991.80,15.5,69,20.77,0.0,1018.35,270.0
2018-07-26 14:20,50.6304366666667,-96.9807616666667,6.7,10.3,313,991.79,15.7,68,20.77,0.0,1018.33,270.0
2018-07-26 14:30,50.6304366666667,-96.9807616666667,8.5,12.1,331,991.79,16.0,69,20.77,0.0,1018.31,270.0
2018-07-26 14:40,50.6304116666667,-96.9807416666667,6.7,12.9,324,991.84,16.2,71,20.75,0.0,1018.33,270.0
2018-07-26 14:50,50.63044,-96.980755,7.6,12.4,322,991.79,16.5,72,20.77,0.0,1018.26,270.0
2018-07-26 15:00,50.6304366666667,-96.98076,7.6,12.7,311,991.74,16.8,72,20.79,0.0,1018.19,119.2
2018-07-26 15:10,50.630435,-96.9807666666667,7.6,12.4,327,991.76,17.3,69,20.81,0.0,1018.17,119.2
2018-07-26 15:20,50.630435,-96.9807633333333,9.4,16.4,336,991.68,17.6,67,20.83,0.0,1018.07,119.2
2018-07-26 15:30,50.6304366666667,-96.9807633333333,9.9,14.3,341,991.69,17.8,65,20.85,0.0,1018.07,119.2
2018-07-26 15:40,50.6304366666667,-96.9807633333333,9.2,13.4,314,991.68,17.9,63,20.86,0.0,1018.05,119.2
2018-07-26 15:50,50.6304366666667,-96.9807616666667,8.8,14.5,304,991.67,18.0,61,20.89,0.0,1018.01,119.2
2018-07-26 16:00,50.6304366666667,-96.9807616666667,8.7,14.1,305,991.66,18.3,58,20.91,0.0,1017.98,228.3
2018-07-26 16:10,50.6304383333333,-96.9807666666667,8.9,15.4,313,991.66,18.5,57,20.95,0.0,1017.96,228.3
2018-07-26 16:20,50.6304416666667,-96.9807716666667,8.6,14.3,320,991.69,18.8,56,21.00,0.0,1017.97,228.3
2018-07-26 16:30,50.6304433333333,-96.98077,7.6,11.9,319,991.72,19.0,55,21.04,0.0,1017.98,228.3
2018-07-26 16:40,50.6304316666667,-96.98076,9.1,14.3,315,991.64,19.2,52,21.07,0.0,1017.88,228.3
2018-07-26 16:50,50.6304383333333,-96.9807683333333,9.8,17.5,330,991.60,19.5,51,21.08,0.0,1017.80,228.3
2018-07-26 17:00,50.6304316666667,-96.9807666666667,9.3,15.7,333,991.56,19.5,51,21.11,0.0,1017.74,194.5
2018-07-26 17:10,50.6304233333333,-96.9807366666667,8.1,14.1,315,991.61,19.8,50,21.12,0.0,1017.77,194.5
2018-07-26 17:20,50.630425,-96.98076,9.9,14.6,337,991.58,19.8,50,21.15,0.0,1017.73,194.5
2018-07-26 17:30,50.6304266666667,-96.98076,8.7,16.9,335,991.57,20.0,48,21.18,0.0,1017.70,194.5
2018-07-26 17:40,50.6304283333333,-96.9807633333333,9.9,17.0,311,991.46,20.1,47,21.23,0.0,1017.59,194.5
2018-07-26 17:50,50.63043,-96.9807633333333,10.6,16.0,341,991.42,20.2,46,21.27,0.0,1017.52,194.5
2018-07-26 18:00,50.6304316666667,-96.9807633333333,8.4,14.3,337,991.44,20.5,47,21.27,0.0,1017.52,228.3
2018-07-26 18:10,50.63043,-96.9807633333333,9.2,14.6,314,991.41,20.5,43,21.27,0.0,1017.47,228.3
2018-07-26 18:20,50.6304433333333,-96.9807566666667,8.8,13.9,327,991.36,20.7,44,21.31,0.0,1017.41,228.3
2018-07-26 18:30,50.63043,-96.9807583333333,10.6,16.6,341,991.24,21.0,44,21.32,0.0,1017.26,228.3
2018-07-26 18:40,50.6304266666667,-96.980755,12.1,18.7,353,991.27,20.9,45,21.27,0.0,1017.28,228.3
2018-07-26 18:50,50.6304216666667,-96.9807566666667,11.2,18.7,342,991.24,21.1,43,21.33,0.0,1017.24,228.3
2018-07-26 19:00,50.6304216666667,-96.9807566666667,10.9,15.9,348,991.23,21.2,42,21.28,0.0,1017.21,161.1
2018-07-26 19:10,50.6304216666667,-96.9807566666667,13.5,18.9,359,991.13,21.3,44,21.15,0.0,1017.10,161.1
2018-07-26 19:20,50.6304166666667,-96.9807833333333,10.4,16.0,354,991.12,21.4,44,21.12,0.0,1017.09,161.1
2018-07-26 19:30,50.63043,-96.980785,11.8,17.1,23,991.17,21.1,54,21.13,0.0,1017.14,161.1
2018-07-26 19:40,50.6304333333333,-96.9807816666667,13.1,21.4,20,991.14,21.1,53,21.17,0.0,1017.11,161.1
2018-07-26 19:50,50.630435,-96.9807816666667,13.5,16.8,33,991.20,20.8,55,21.32,0.0,1017.17,161.1
2018-07-26 20:00,50.6304066666667,-96.9807883333333,13.6,16.4,26,991.24,20.9,55,21.19,0.0,1017.21,204.3
2018-07-26 20:10,50.63045,-96.980765,13.6,16.1,26,991.24,20.9,53,21.07,0.0,1017.20,204.3
2018-07-26 20:20,50.63042,-96.980775,13.5,15.7,22,991.25,21.0,53,21.06,0.0,1017.19,204.3
2018-07-26 20:30,50.6304283333333,-96.9807716666667,14.0,16.0,24,991.16,21.1,54,21.04,0.0,1017.10,204.3
2018-07-26 20:40,50.6304333333333,-96.98077,14.6,17.0,23,991.07,21.2,54,21.01,0.0,1017.00,204.3
2018-07-26 20:50,50.6304333333333,-96.9807683333333,13.7,16.0,23,991.10,21.3,53,21.06,0.0,1017.01,204.3
2018-07-26 21:00,50.6304333333333,-96.9807683333333,14.6,16.6,25,991.08,21.4,52,21.19,0.0,1016.99,0.0
2018-07-26 21:10,50.6304433333333,-96.9807666666667,15.8,18.4,23,991.04,21.5,51,21.16,0.0,1016.94,0.0
2018-07-26 21:20,50.63044,-96.980765,14.9,17.3,21,991.05,21.5,53,21.15,0.0,1016.96,0.0
2018-07-26 21:30,50.63044,-96.980765,16.3,18.6,22,990.99,21.6,52,21.15,0.0,1016.89,0.0
2018-07-26 21:40,50.63044,-96.98077,15.7,18.6,21,991.02,21.7,52,21.18,0.0,1016.93,0.0
2018-07-26 21:50,50.6304266666667,-96.9807933333333,15.1,18.0,19,991.03,21.7,52,21.16,0.0,1016.94,0.0
2018-07-26 22:00,50.6304283333333,-96.980785,14.9,18.0,18,991.04,21.8,52,21.27,0.0,1016.94,286.8
2018-07-26 22:10,50.630415,-96.980765,14.2,17.1,17,991.04,21.8,52,21.29,0.0,1016.93,286.8
2018-07-26 22:20,50.6304266666667,-96.9807616666667,13.6,15.9,19,991.03,21.9,54,21.35,0.0,1016.92,286.8
2018-07-26 22:30,50.6304333333333,-96.98076,13.3,15.5,17,991.01,21.9,53,21.37,0.0,1016.90,286.8
2018-07-26 22:40,50.6304366666667,-96.9807633333333,14.1,16.6,14,990.96,22.0,53,21.37,0.0,1016.83,286.8
2018-07-26 22:50,50.6304416666667,-96.9807833333333,13.9,15.5,15,990.97,22.1,53,21.33,0.0,1016.84,286.8
2018-07-26 23:00,50.6304283333333,-96.98078,13.7,16.1,14,991.01,22.2,54,21.30,0.0,1016.87,360.0
2018-07-26 23:10,50.6304266666667,-96.9807733333333,12.6,15.0,15,991.03,22.2,54,21.29,0.0,1016.89,360.0
2018-07-26 23:20,50.6304283333333,-96.9807716666667,12.4,14.8,12,991.02,22.3,53,21.29,0.0,1016.87,360.0
2018-07-26 23:30,50.6304283333333,-96.98077,12.7,14.6,13,990.95,22.4,54,21.29,0.0,1016.79,360.0
2018-07-26 23:40,50.6304233333333,-96.9807616666667,12.9,15.0,9,990.94,22.5,52,21.29,0.0,1016.78,360.0
2018-07-26 23:50,50.630435,-96.9807833333333,12.1,14.6,9,991.03,22.6,52,21.30,0.0,1016.86,360.0
